Погода в Сухой Вязовке

Россия / Самарская область     52°53′02″N   50°13′04″E
темп.,
°C
ветер,
м/с
пор.,
м/с
влажн.,
%
обл.,
%
осадки,
мм/ч
давл.,
гПа
погр.,
м
13 июня, вс
вс1301:00+16ююв348917 1.3 101252
04:00+15ю22895 1.3 101317
07:00+19ю35790 0.0 1014181
10:00+23ю566456 0.8 1014614
13:00+26ююз685236 2.1 10132348
16:00+26ю465593 2.1 10131679
19:00+21з6975100 0.6 1014327
22:00+17юв338592 1.8 101541
14 июня, пн
пн1401:00+17юв338584 0.3 101529
04:00+17ююв1185100 0.3 101511
07:00+20в2277100 0.0 1016134
10:00+24всв226299 0.0 1016529
13:00+27всв3452100 0.0 10161254
16:00+28в4551100 0.0 10151673
19:00+24св35735 0.0 1014164
22:00+20св467979 0.0 101479
15 июня, вт
вт1501:00+18в348199 0.0 101358
04:00+17ююв2286100 0.2 101340
07:00+19ю2284100 0.1 101474
10:00+20ю2782100 0.6 1014212
13:00+22ююв5768100 0.1 1013239
16:00+26св214992 0.1 1013639
19:00+24св3471100 0.0 1011109
22:00+19св1179100 0.0 101111
16 июня, ср
ср1601:00+19ссв1280100 0.0 101111
04:00+19всв357893 0.0 101084
07:00+21всв4874100 0.0 1009200
10:00+24вюв56515 0.0 1008660
13:00+27юв56455 0.0 10071323
16:00+29ю3445100 0.0 10061661
19:00+25з3465100 0.0 100660
22:00+21зсз367188 0.0 100787
17 июня, чт
чт1701:00+19сз4108065 0.0 1008290
04:00+17зсз37925 0.1 1010153
07:00+19ссз59825 0.0 1012518
10:00+21с7959100 0.0 1014905
13:00+22с78410 0.0 10151639
16:00+22с78430 0.0 10161820
19:00+19с59580 0.0 1017601
22:00+15с35660 0.0 101979